[[{"header":{"parameterUnit":"m.s-1","parameterCategory":1,"la1":30.2991,"la2":30.254,"lo1":-89.0895,"lo2":-89.0444,"dy":0.0017,"dx":0.0017,"nx":28,"ny":28,"refTime":"2025-04-29T03:00:00:Z","depth":0,"parameterNumber":2,"parameterNumberName":"U-component_of_WINDS"},"data":[0,0,0,0,0,0,0,0,0,0,0,0,0,0,0,0,0,0,0,0,0,0,0,0,0,0,0,0,0,0,0,0,0,0,0,0,0,0,0,0,0,0,0,0,0,0,0,0,0,0,0,0,0,0,0,0,0,0,-3.2219,-3.2219,0,-3.2235,-3.2235,-3.2235,-3.2185,-3.2184,-3.2182,-3.2181,-3.2195,-3.2197,-3.2199,0,0,0,0,0,0,0,0,0,0,0,0,0,-3.2145,-3.2147,-3.2219,-3.2219,-3.2219,-3.2235,-3.2235,-3.2235,-3.2185,-3.2184,-3.2182,-3.218,-3.2194,-3.2197,-3.2199,0,0,0,0,0,0,0,0,0,0,0,0,0,-3.2171,-3.2147,-3.2219,-3.2196,-3.2195,-3.2235,-3.2235,-3.2235,-3.2186,-3.2183,-3.2181,-3.2179,-3.2194,-3.2196,-3.2199,-3.2261,0,0,-3.2207,-3.2208,0,0,0,0,0,0,0,0,-3.2169,-3.2173,-3.22,-3.2198,-3.2196,-3.2206,-3.2214,-3.2244,-3.2186,-3.2189,-3.2181,-3.2178,-3.22,-3.2202,-3.221,-3.2262,-3.2262,-3.2207,-3.2209,-3.221,-3.2211,0,0,0,0,0,0,0,-3.2168,-3.2172,-3.2225,-3.22,-3.2198,-3.2185,-3.2186,-3.2219,-3.2207,-3.2189,-3.2185,-3.2188,-3.2199,-3.2208,-3.221,-3.2262,-3.2207,-3.221,-3.2211,-3.2212,-3.2366,-3.2368,0,0,0,0,0,0,-3.2169,-3.2171,-3.2225,-3.2225,-3.2177,-3.2188,-3.219,-3.2205,-3.2207,-3.2205,-3.219,-3.2185,-3.2204,-3.2207,-3.221,-3.2283,-3.221,-3.2213,-3.2214,-3.2364,-3.2367,-3.2369,0,0,0,0,0,0,-3.2167,-3.2174,-3.2224,-3.2197,-3.2203,-3.2192,-3.2209,-3.2206,-3.2215,-3.2207,-3.2205,-3.2201,-3.2203,-3.2207,-3.2249,-3.2283,-3.2214,-3.2216,-3.2361,-3.2364,-3.2368,-3.2429,0,0,0,0,0,0,-3.2166,-3.2174,-3.2197,-3.2198,-3.2204,-3.2263,-3.2212,-3.2208,-3.222,-3.2215,-3.2217,-3.2216,-3.2201,-3.2245,-3.2252,-3.2285,-3.2218,-3.2358,-3.2362,-3.2367,-3.2424,-3.2434,-3.2443,0,0,0,0,0,-3.2163,-3.2213,-3.2199,-3.2205,-3.2234,-3.2265,-3.2268,-3.2251,-3.2223,-3.2246,-3.2242,-3.2215,-3.2279,-3.225,-3.2257,-3.2292,-3.2355,-3.2361,-3.2366,-3.242,-3.2432,-3.2443,0,0,0,0,0,0,-3.2216,-3.2213,-3.2197,-3.2249,-3.2258,-3.2256,-3.2285,-3.2265,-3.2281,-3.2275,-3.2252,-3.2254,-3.23,-3.23,-3.2268,-3.2352,-3.2312,-3.2319,-3.235,-3.2362,-3.2372,-3.237,-3.2221,0,0,0,0,0,-3.2233,-3.2259,-3.2255,-3.2302,-3.2307,-3.2296,-3.2308,-3.2295,-3.2302,-3.2305,-3.2304,-3.2312,-3.2333,-3.2348,-3.2367,-3.2424,-3.2424,-3.2452,-3.2461,-3.2469,-3.2476,-3.2506,-3.2518,-3.2387,-3.2387,-3.2387,0,0,-3.227,-3.2272,-3.2289,-3.2313,-3.2317,-3.2344,-3.2299,-3.2329,-3.2349,-3.231,-3.235,-3.2349,-3.2357,-3.2407,-3.2429,-3.2408,-3.2512,-3.2477,-3.2483,-3.2485,-3.2513,-3.2526,-3.2537,-3.2391,-3.2391,-3.239,0,0,-3.2351,-3.2355,-3.2394,-3.2401,-3.2409,-3.2401,-3.2411,-3.2413,-3.2411,-3.2452,-3.2423,-3.2446,-3.2484,-3.249,-3.2499,-3.2584,-3.256,-3.2591,-3.2641,-3.2671,-3.2682,-3.2691,-3.2721,-3.2732,-3.2597,-3.2598,-3.2598,0,-3.2395,-3.2435,-3.2417,-3.2449,-3.2461,-3.2428,-3.2467,-3.2474,-3.2489,-3.2497,-3.2474,-3.2522,-3.2524,-3.2576,-3.2597,-3.2605,-3.2615,-3.259,-3.2682,-3.2691,-3.2699,-3.2727,-3.2739,-3.2601,-3.2601,-3.26,-3.26,0,-3.2489,-3.2517,-3.2548,-3.2564,-3.2578,-3.2614,-3.2602,-3.2619,-3.2604,-3.2599,-3.2641,-3.2643,-3.2663,-3.2674,-3.266,-3.2724,-3.2711,-3.2686,-3.2644,-3.2715,-3.2742,-3.2752,-3.2606,-3.2605,-3.2604,-3.2603,0,0,-3.2601,-3.2608,-3.2619,-3.2626,-3.2634,-3.2656,-3.2691,-3.2711,-3.2726,-3.2737,-3.2766,-3.2799,-3.2776,-3.2786,-3.2772,-3.2798,-3.2866,-3.277,-3.2769,-3.2787,-3.2937,-3.2955,-3.2968,-3.2851,-3.2853,-3.2855,-3.2936,0,-3.268,-3.274,-3.2726,-3.2785,-3.2811,-3.2782,-3.2812,-3.282,-3.2817,-3.2838,-3.2834,-3.2858,-3.2826,-3.2831,-3.2856,-3.2852,-3.2895,-3.2846,-3.2877,-3.2878,-3.2875,-3.2982,-3.3002,-3.3079,-3.2946,-3.2948,-3.2949,0,-3.278,-3.2797,-3.2859,-3.2864,-3.2874,-3.2902,-3.2919,-3.294,-3.2949,-3.2945,-3.2957,-3.2938,-3.2972,-3.2932,-3.2979,-3.2946,-3.2958,-3.2958,-3.2961,-3.2962,-3.2917,-3.2986,-3.3103,-3.3114,-3.2965,-3.2964,-3.2963,0,-3.2856,-3.2893,-3.2936,-3.2943,-3.2949,-3.297,-3.2973,-3.298,-3.2993,-3.3009,-3.3017,-3.3036,-3.3047,-3.3062,-3.3049,-3.3021,-3.3099,-3.3057,-3.3095,-3.3096,-3.3112,-3.3111,-3.3232,-3.3121,-3.3121,-3.3121,-3.312,0,-3.2945,-3.2984,-3.297,-3.2996,-3.3039,-3.3023,-3.3066,-3.3066,-3.3072,-3.3098,-3.3073,-3.3097,-3.3079,-3.3102,-3.3092,-3.3133,-3.3138,-3.3135,-3.3132,-3.3137,-3.3137,-3.3144,-3.3138,-3.3124,-3.3123,-3.3122,-3.3122,0,-3.3036,-3.3028,-3.3072,-3.3076,-3.3077,-3.3109,-3.3112,-3.3136,-3.3131,-3.3164,-3.317,-3.3163,-3.3188,-3.3178,-3.3204,-3.3198,-3.325,-3.324,-3.3247,-3.3244,-3.3283,-3.328,-3.3412,-3.3428,-3.3307,-3.3309,-3.331,0,-3.3093,-3.3123,-3.313,-3.3146,-3.3151,-3.3177,-3.3191,-3.3176,-3.3191,-3.3205,-3.3227,-3.3251,-3.3269,-3.3311,-3.3308,-3.3329,-3.3319,-3.3364,-3.3321,-3.3326,-3.3319,-3.3317,-3.332,-3.3372,-3.3373,-3.3374,-3.3375,0,-3.3196,-3.3191,-3.3212,-3.3233,-3.325,-3.3266,-3.3279,-3.3293,-3.3279,-3.3297,-3.3324,-3.3338,-3.3366,-3.339,-3.3409,-3.3412,-3.3391,-3.3389,-3.3399,-3.3404,-3.3407,-3.3405,-3.327,-3.3385,-3.3384,-3.3384,-3.3383,-3.3383,-3.3271,-3.3297,-3.3306,-3.3331,-3.3339,-3.3353,-3.3376,-3.3375,-3.3397,-3.3419,-3.3409,-3.344,-3.3448,-3.3471,-3.3478,-3.3501,-3.3484,-3.3498,-3.3502,-3.3505,-3.351,-3.3404,-3.3505,-3.3504,-3.3504,-3.3504,-3.3504,0,-3.3372,-3.3377,-3.34,-3.342,-3.344,-3.342,-3.3434,-3.3452,-3.3479,-3.349,-3.3509,-3.3539,-3.3563,-3.3562,-3.3584,-3.3603,-3.3594,-3.3609,-3.3607,-3.3608,-3.3525,-3.3514,-3.3616,-3.3616,-3.3616,-3.3616,-3.3616,-3.3616,-3.3427,-3.3469,-3.3465,-3.3512,-3.3516,-3.3547,-3.3556,-3.3568,-3.3577,-3.3612,-3.3632,-3.3632,-3.3638,-3.366,-3.3681,-3.368,-3.3689,-3.3707,-3.3703,-3.3625,-3.3614,-3.3603,-3.3593,-3.371,-3.371,-3.3784,-3.3785,-3.3785]},{"header":{"parameterUnit":"m.s-1","parameterCategory":1,"la1":30.2991,"la2":30.254,"lo1":-89.0895,"lo2":-89.0444,"dy":0.0017,"dx":0.0017,"nx":28,"ny":28,"refTime":"2025-04-29T03:00:00:Z","depth":0,"parameterNumber":3,"parameterNumberName":"V-component_of_WINDS"},"data":[0,0,0,0,0,0,0,0,0,0,0,0,0,0,0,0,0,0,0,0,0,0,0,0,0,0,0,0,0,0,0,0,0,0,0,0,0,0,0,0,0,0,0,0,0,0,0,0,0,0,0,0,0,0,0,0,0,0,2.315,2.315,0,2.3146,2.3146,2.3146,2.3131,2.313,2.313,2.313,2.3124,2.3124,2.3124,0,0,0,0,0,0,0,0,0,0,0,0,0,2.3142,2.3142,2.315,2.315,2.315,2.3146,2.3146,2.3146,2.3131,2.313,2.313,2.3129,2.3124,2.3124,2.3124,0,0,0,0,0,0,0,0,0,0,0,0,0,2.3142,2.3142,2.315,2.3142,2.3141,2.3146,2.3146,2.3146,2.3131,2.313,2.313,2.3129,2.3123,2.3124,2.3124,2.3136,0,0,2.3125,2.3125,0,0,0,0,0,0,0,0,2.3142,2.3143,2.3143,2.3142,2.3141,2.3138,2.3141,2.3143,2.3131,2.3135,2.313,2.3129,2.3129,2.3129,2.3129,2.3136,2.3136,2.3125,2.3125,2.3125,2.3125,0,0,0,0,0,0,0,2.3142,2.3143,2.3148,2.3143,2.3142,2.3138,2.3137,2.3142,2.3135,2.3134,2.3133,2.3133,2.3128,2.3129,2.3129,2.3136,2.3125,2.3125,2.3125,2.3125,2.3154,2.3155,0,0,0,0,0,0,2.3144,2.3143,2.3149,2.3148,2.3141,2.3138,2.3138,2.314,2.3135,2.3133,2.3133,2.3132,2.3129,2.3128,2.3129,2.3144,2.3125,2.3125,2.3125,2.3154,2.3154,2.3155,0,0,0,0,0,0,2.3144,2.3144,2.3149,2.3145,2.3146,2.3139,2.3142,2.314,2.3141,2.3134,2.3133,2.3135,2.3128,2.3128,2.3135,2.3143,2.3125,2.3126,2.3153,2.3154,2.3155,2.3173,0,0,0,0,0,0,2.3144,2.3145,2.3149,2.3146,2.3146,2.3156,2.3142,2.314,2.3141,2.314,2.3135,2.3134,2.3128,2.3135,2.3135,2.3143,2.3126,2.3152,2.3153,2.3155,2.3172,2.3175,2.3177,0,0,0,0,0,2.3143,2.3154,2.315,2.315,2.3152,2.3156,2.3156,2.3149,2.3142,2.3147,2.3143,2.3134,2.3142,2.3136,2.3136,2.3144,2.3152,2.3153,2.3154,2.3171,2.3174,2.3177,0,0,0,0,0,0,2.3157,2.3153,2.3148,2.3158,2.3158,2.3154,2.3159,2.3153,2.3154,2.3152,2.3143,2.3142,2.3151,2.3148,2.3141,2.3157,2.3146,2.3147,2.3158,2.3161,2.3164,2.3164,2.3126,0,0,0,0,0,2.3162,2.3166,2.3162,2.3171,2.3171,2.3165,2.3167,2.3162,2.3161,2.316,2.3157,2.3155,2.3158,2.3159,2.3161,2.3172,2.3171,2.3178,2.318,2.3182,2.3184,2.319,2.3193,2.316,2.316,2.316,0,0,2.317,2.3169,2.3172,2.3174,2.3173,2.3178,2.3165,2.317,2.3174,2.3161,2.3167,2.3165,2.3163,2.3172,2.3176,2.317,2.3193,2.3184,2.3186,2.3186,2.3192,2.3195,2.3198,2.3161,2.316,2.316,0,0,2.3189,2.3188,2.3196,2.3196,2.3195,2.3192,2.3194,2.3191,2.3189,2.3196,2.3187,2.319,2.3194,2.3194,2.3194,2.3214,2.3206,2.3215,2.3228,2.3235,2.3237,2.324,2.3247,2.325,2.3216,2.3216,2.3216,0,2.3199,2.3207,2.32,2.3207,2.3208,2.3198,2.3206,2.3206,2.3206,2.3207,2.3201,2.3207,2.3205,2.3214,2.3219,2.322,2.3222,2.3215,2.3238,2.324,2.3242,2.3249,2.3252,2.3217,2.3217,2.3217,2.3217,0,2.322,2.3225,2.3232,2.3233,2.3235,2.3242,2.3237,2.324,2.3235,2.3232,2.324,2.3238,2.3239,2.3241,2.3236,2.325,2.3247,2.3239,2.3228,2.3246,2.3253,2.3256,2.3219,2.3219,2.3218,2.3218,0,0,2.3246,2.3245,2.3248,2.3249,2.3248,2.3252,2.3259,2.3262,2.3265,2.3265,2.3271,2.3275,2.3269,2.3269,2.3264,2.327,2.3287,2.3262,2.3262,2.3267,2.3304,2.3309,2.3313,2.3282,2.3283,2.3283,2.3304,0,2.3264,2.3276,2.3272,2.3284,2.329,2.3281,2.3287,2.3288,2.3286,2.3289,2.3286,2.329,2.3281,2.3282,2.3287,2.3284,2.3294,2.3282,2.3287,2.3288,2.3288,2.3316,2.3322,2.3341,2.3306,2.3307,2.3307,0,2.3286,2.3289,2.3303,2.3303,2.3305,2.331,2.3313,2.3317,2.3317,2.3315,2.3317,2.3311,2.3318,2.3307,2.3317,2.3309,2.3311,2.331,2.331,2.331,2.3298,2.3317,2.3347,2.335,2.3311,2.3311,2.3311,0,2.3304,2.3311,2.3321,2.3322,2.3322,2.3326,2.3326,2.3327,2.3329,2.3331,2.3333,2.3336,2.3337,2.334,2.3335,2.3327,2.3345,2.3334,2.3343,2.3344,2.3347,2.3347,2.3378,2.3348,2.3348,2.3348,2.3348,0,2.3324,2.3333,2.3329,2.3335,2.3345,2.334,2.3349,2.3348,2.3349,2.3354,2.3347,2.3352,2.3345,2.335,2.3346,2.3355,2.3355,2.3354,2.3353,2.3354,2.3355,2.3355,2.3354,2.3349,2.3349,2.3349,2.3349,0,2.3346,2.3343,2.3353,2.3353,2.3354,2.3361,2.3361,2.3366,2.3364,2.3371,2.3372,2.3369,2.3374,2.337,2.3374,2.3372,2.3384,2.338,2.3384,2.3383,2.3393,2.3392,2.3426,2.343,2.3398,2.3398,2.3398,0,2.3359,2.3366,2.3367,2.3371,2.3372,2.3378,2.3381,2.3376,2.3379,2.3382,2.3387,2.3392,2.3395,2.3404,2.3401,2.3405,2.3402,2.3413,2.3402,2.3404,2.3402,2.3402,2.3403,2.3415,2.3416,2.3416,2.3416,0,2.3383,2.3382,2.3387,2.3392,2.3396,2.3399,2.3402,2.3405,2.3401,2.3405,2.3411,2.3414,2.342,2.3424,2.3428,2.3427,2.3421,2.342,2.3423,2.3424,2.3426,2.3426,2.339,2.3419,2.3419,2.3419,2.3419,2.3418,2.3401,2.3407,2.3409,2.3415,2.3417,2.3421,2.3426,2.3426,2.3431,2.3436,2.3433,2.344,2.3441,2.3445,2.3446,2.3451,2.3446,2.345,2.345,2.3451,2.3453,2.3426,2.3452,2.3451,2.3451,2.3451,2.3451,0,2.3424,2.3426,2.3432,2.3437,2.3442,2.3437,2.344,2.3445,2.3451,2.3454,2.3458,2.3465,2.347,2.3469,2.3474,2.3478,2.3476,2.348,2.3479,2.3479,2.3457,2.3455,2.3482,2.3482,2.3482,2.3482,2.3482,2.3482,2.3437,2.3448,2.3447,2.3459,2.346,2.3468,2.3471,2.3474,2.3476,2.3484,2.3489,2.3489,2.349,2.3495,2.35,2.3499,2.3501,2.3506,2.3505,2.3484,2.3481,2.3478,2.3476,2.3507,2.3507,2.3527,2.3527,2.3527]}]]